Location: Curupao
(10.4996°N, 66.6442°W)
Time: 12:10:16
(UTC+00:00)

OAO 1 - Pass Details

Date: 23 May 2024
Orbit: 772 x 782 km, 35.0° (Epoch: 24 June)

Event Time Altitude Azimuth Distance (km) Brightness Sun altitude
Exits shadow 08:37:05 27° 293° (WNW) 1,452 5.6 -20.3°
Maximum altitude 08:40:05 68° 217° (SW) 825 4.4 -19.7°
Drops below altitude 10° 08:45:30 10° 134° (SE) 2,307 7.2 -18.5°
Sets 08:47:59 0° 132° (SE) 3,235 8.0 -17.9°
